Location: Chevoux
(46.3801°N, 4.9476°E)
Time: 03:57:44
(UTC+00:00)

Envisat - Pass Details

Date: 03 December 2021
Orbit: 764 x 766 km, 98.2° (Epoch: 16 January)

Event Time Altitude Azimuth Distance (km) Brightness Sun altitude
Rises 17:27:07 0° 224° (SW) 3,223 7.3 -15.4°
Reaches altitude 10° 17:31:36 10° 261° (W) 2,305 6.8 -16.1°
Maximum altitude 17:32:46 11° 275° (W) 2,258 6.5 -16.3°
Drops below altitude 10° 17:33:55 10° 288° (WNW) 2,309 6.3 -16.5°
Sets 17:38:27 0° 326° (NW) 3,244 6.5 -17.2°
